Actualité

 

LogoChallengeNewsletter

Challenge du Pays Boulonnais

Voir le règlement complet du Challenge du Pays Boulonnais 2019

Classement aprés 7 épreuves au 30/06/19.

La cagnotte "Chronopale 2019" à partager entre tous les coureurs classés sur les 11 épreuves sera de 1 200€

Aprés 7 épreuves vous êtes 28 à pouvoir vous partager la cagnotte.

Date des épreuves

10/02/19  Les 6 Miles de Pont de Briques

23/03/19 Les Foulées Guinoises 10 Km

24/03/19  Foulées du Printemps à Nesles 10 Km

01/05/19  La Ronde du Fort de l'Heurt à Le Portel 10 Km (nature plage et falaise)

25/05/19  Semi Marathon de la Terre des 2 Caps à Wacquinghem (Sauf pour les cadets) 

09/06/19  La Win Run à Wimereux 10 Km

30/06/19  Boulogne 10 Km

13/10/19  Les Foulées de la Santé à Saint Martin 10 Km

17/11/19 Les Foulées Outreloises à Outreau  10 Km       

24/11/19  Les Foulées de la Sainte Catherine à Menneville 10 Km

07/12/19  Rues & Run Desvroises 10 Km

 

Nous contacter

Chronopale
59 Rue Léonce TOBO
62200 Boulogne sur mer
06 60 17 22 13
contact@chronopale.fr
www.chronopale.fr

 

Poussins

POUSSINS FOULEES GUINOISES du 23/03/19 (Réelle 1,55)
Rang Dossard Nom Prénom Temps Cat Rang Cat Ecart Ecart Cat Club Vitesse Km/h Temps au Km
1 72 POTIER Maxime 00:04:56 POM 1 00:00:00 00:00:00 Ac outreau 18,851 03:11
2 52 VASSEUR Jean baptiste 00:05:02 POM 2 00:00:06 00:00:06 18,477 03:15
3 68 CORRUE Raphaël 00:05:04 POM 3 00:00:08 00:00:08 Ac outreau 18,355 03:16
4 71 MORICE Gautier 00:05:04 POM 4 00:00:08 00:00:08 Ac outreau 18,355 03:16
5 103 PECRIAUX CAMILLE 00:05:07 POF 1 00:00:11 00:00:00 La patriote cross de guines 18,176 03:18
6 63 MATHUREL Rémi 00:05:08 POM 5 00:00:12 00:00:12 R.a.d.t 18,117 03:19
7 60 LAPOTRE GLORIANT Quentin 00:05:09 POM 6 00:00:13 00:00:13 Stade olympique calais athletisme 18,058 03:19
8 48 LEFEBVRE LOUISE 00:05:10 POF 2 00:00:14 00:00:03 - 18,000 03:20
9 69 VIVIEZ Honorine 00:05:16 POF 3 00:00:20 00:00:09 Blanc nez triathlon 17,658 03:24
10 61 COMYN Charlotte 00:05:17 POF 4 00:00:21 00:00:10 Blanc nez triathlon 17,603 03:25
11 91 BERNARD CLEMENT 00:05:23 POM 7 00:00:27 00:00:27 La patriote cross de guines 17,276 03:28
12 75 POURRE Quentin 00:05:24 POM 8 00:00:28 00:00:28 Blca 17,222 03:29
13 125 DELEGLISE Laurine 00:05:25 POF 5 00:00:29 00:00:18 Jogging club licquois 17,169 03:30
14 116 BLANQUART Corentin 00:05:29 POM 9 00:00:33 00:00:33 As marck 16,960 03:32
15 76 DUPREZ Jules 00:05:30 POM 10 00:00:34 00:00:34 Blca 16,909 03:33
16 124 HOCHART Clément 00:05:30 POF 6 00:00:34 00:00:23 Jogging club licquois 16,909 03:33
17 378 LECOUSTE Timeo 00:05:30 POM 11 00:00:34 00:00:34 16,909 03:33
18 136 SORET RAPHAEL 00:05:32 POM 12 00:00:36 00:00:36 ATHLETISME CLUB OUTREAU 16,807 03:34
19 81 DUCHEMIN LUCAS 00:05:33 POM 13 00:00:37 00:00:37 SOC 16,757 03:35
20 86 GAGNE MATHIS 00:05:38 POM 14 00:00:42 00:00:42 La patriote cross de guines 16,509 03:38
21 123 DARRAS Julia 00:05:38 POF 7 00:00:42 00:00:31 Jogging club licquois 16,509 03:38
22 118 HATTEA Sahan 00:05:39 POM 15 00:00:43 00:00:43 As marck 16,460 03:39
23 120 HURTEAU Louna 00:05:40 POF 8 00:00:44 00:00:33 As marck 16,412 03:39
24 101 LENGAGNE LILIA 00:05:42 POF 9 00:00:46 00:00:35 La patriote cross de guines 16,316 03:41
25 93 PLOUVIN ERWAN 00:05:42 POM 16 00:00:46 00:00:46 La patriote cross de guines 16,316 03:41
26 47 KAMINSKI QUENTIN 00:05:43 POM 17 00:00:47 00:00:47 - 16,268 03:41
27 126 TAUFOUR Zelie 00:05:49 BEF 1 00:00:53 00:00:00 Blanc nez triathlon 15,989 03:45
28 121 NGUYEN Mailan 00:05:51 POF 10 00:00:55 00:00:44 As marck 15,897 03:46
29 135 SPRIET ARTHUR 00:05:51 POM 18 00:00:55 00:00:55 A.S. MARCK 15,897 03:46
30 53 BEUTIN Noé 00:05:52 POM 19 00:00:56 00:00:56 15,852 03:47
31 112 BODART Aurelien 00:05:53 POM 20 00:00:57 00:00:57 As marck 15,807 03:48
32 67 LEHON Manon 00:05:57 POF 11 00:01:01 00:00:50 Ac outreau 15,630 03:50
33 70 HEDDEBAUX Louis 00:05:58 POM 21 00:01:02 00:01:02 Blanc nez triathlon 15,587 03:51
34 111 BEHAGUE Agathe 00:05:59 POF 12 00:01:03 00:00:52 As marck 15,543 03:52
35 74 FOISSEY Manon 00:06:00 POF 13 00:01:04 00:00:53 Blca 15,500 03:52
36 89 DUVIEUXBOURG JULINE 00:06:00 POF 14 00:01:04 00:00:53 La patriote cross de guines 15,500 03:52
37 129 HALIPRE ANAE 00:06:01 POF 15 00:01:05 00:00:54 - 15,457 03:53
38 50 PIERRU Clément 00:06:02 POM 22 00:01:06 00:01:06 Jogging club licquois 15,414 03:54
39 73 FOISSEY Lili 00:06:07 POF 16 00:01:11 00:01:00 Blca 15,204 03:57
40 98 SELINGUE COUTURE COLETTE 00:06:07 POF 17 00:01:11 00:01:00 La patriote cross de guines 15,204 03:57
41 131 CALVEZ ZOE 00:06:08 POF 18 00:01:12 00:01:01 . 15,163 03:57
42 65 WANNEGUE Matheo 00:06:08 POM 23 00:01:12 00:01:12 Cacb 15,163 03:57
43 51 MARTEL Anaelle 00:06:10 POF 19 00:01:14 00:01:03 15,081 03:59
44 108 HAMAIN William 00:06:11 POM 24 00:01:15 00:01:15 As marck 15,040 03:59
45 141 COUPIN INES 00:06:14 POF 20 00:01:18 00:01:07 BLANC NEZ TRIATHLON 14,920 04:01
46 66 PLATIAU Camille 00:06:15 POF 21 00:01:19 00:01:08 14,880 04:02
47 104 DEWET BRULIN LILI 00:06:16 POF 22 00:01:20 00:01:09 La patriote cross de guines 14,840 04:03
48 78 CRANDAL Esther 00:06:17 POF 23 00:01:21 00:01:10 Blca 14,801 04:03
49 109 VASSEUR Zoé 00:06:19 POF 24 00:01:23 00:01:12 As marck 14,723 04:05
50 107 BARON Louna 00:06:19 POF 25 00:01:23 00:01:12 As marck 14,723 04:05
51 117 LOUVET Lola 00:06:20 POF 26 00:01:24 00:01:13 As marck 14,684 04:05
52 46 DEBOVE Estelle 00:06:20 POF 27 00:01:24 00:01:13 - 14,684 04:05
53 90 BLAIZEL ROBIN 00:06:21 POM 25 00:01:25 00:01:25 La patriote cross de guines 14,646 04:06
54 119 DUMOULIN Manon 00:06:24 POF 28 00:01:28 00:01:17 As marck 14,531 04:08
55 137 BAROIS ABBY 00:06:25 POM 26 00:01:29 00:01:29 A.S. MARCK 14,494 04:08
56 43 MOREL-DUMONT FLORIAN 00:06:25 POM 27 00:01:29 00:01:29 . 14,494 04:08
57 42 CARBONNEL PAUL 00:06:26 POM 28 00:01:30 00:01:30 . 14,456 04:09
58 382 MACREL LOANNE 00:06:31 POF 29 00:01:35 00:01:24 . 14,271 04:12
59 80 ALVAREZ Camille 00:06:32 POF 30 00:01:36 00:01:25 Blca 14,235 04:13
60 85 SAUVAGE MATHIS 00:06:33 POM 29 00:01:37 00:01:37 Le Drapeau Le portel 14,198 04:14
61 105 BULTEL Capucine 00:06:34 POF 31 00:01:38 00:01:27 As marck 14,162 04:14
62 64 WANNEGUE Annabelle 00:06:35 POF 32 00:01:39 00:01:28 Cacb 14,127 04:15
63 54 BATTESTI Lucas 00:06:38 POM 30 00:01:42 00:01:42 Ac outreau 14,020 04:17
64 134 PAINDAVOINE ALYSEA 00:06:39 POF 33 00:01:43 00:01:32 A.S. MARCK 13,985 04:17
65 110 MAHARJA Eliott 00:06:39 POM 31 00:01:43 00:01:43 As marck 13,985 04:17
66 122 DELRUE Romane 00:06:42 POF 34 00:01:46 00:01:35 As marck 13,881 04:19
67 110 MAHARJA Eliott 00:06:58 POM 32 00:02:02 00:02:02 As marck 13,349 04:30
68 84 FORTIN FAUSTINE 00:07:04 POF 35 00:02:08 00:01:57 Le Drapeau Le portel 13,160 04:34
69 138 GUY QUENTIN 00:07:08 POM 33 00:02:12 00:02:12 BLANC NEZ TRIATHLON 13,037 04:36
70 45 ROUTIER DORIAN 00:07:14 POM 34 00:02:18 00:02:18 . 12,857 04:40
71 56 POLLET Lauréline 00:07:14 POF 36 00:02:18 00:02:07 12,857 04:40
72 44 ROUTIER PAULINE 00:07:15 POF 37 00:02:19 00:02:08 . 12,828 04:41
73 39 MILO Fiona 00:07:15 POF 38 00:02:19 00:02:08 Jogging club licquois 12,828 04:41
74 57 LACHERY Eline 00:07:15 POF 39 00:02:19 00:02:08 12,828 04:41
75 102 DUVAL JOUBIN LORENZO 00:07:20 POM 35 00:02:24 00:02:24 La patriote cross de guines 12,682 04:44
76 41 CLABAUX RAFAEL 00:07:26 POM 36 00:02:30 00:02:30 . 12,511 04:48
77 113 CASTILLE Soline 00:08:05 POF 40 00:03:09 00:02:58 As marck 11,505 05:13
78 128 GRESSIER ANAELLE 00:08:30 POF 41 00:03:34 00:03:23 - 10,941 05:29
79 354 JOLY LUCAS 00:08:35 POM 37 00:03:39 00:03:39 . 10,835 05:32

Agenda